Delray Beach, FL

9:12 AM EDT on July 27, 2017 (GMT -0400)
Lake Ida - Garden House | | Change Station

Elev 0 ft 26.48 °N, 80.07 °W | Updated 25 seconds ago

Partly Cloudy
Partly Cloudy
87.1 °F
Feels Like 98 °F
N
3.0
Wind Variable Wind from ESE

Today
High -- | Low -- °F
--% Chance of Precip.
Yesterday
High -- | Low -- °F
Precip. -- in
Pressure 30.03 in
Visibility 10.0 miles
Clouds Few 2200 ft
Scattered Clouds 2600 ft
Heat Index 98 °F
Dew Point 76 °F
Humidity 70%
Rainfall 0.00 in
Snow Depth Not available.
6:43 AM 8:10 PM
Waxing Crescent, 21% visible
METAR KPMP 271253Z 13010KT 10SM FEW022 SCT026 31/25 A3002 RMK AO2 SLP167 T03060250
Pressure 30.03 in
Visibility 10.0 miles
Clouds Few 2200 ft
Scattered Clouds 2600 ft
Heat Index 98 °F
Dew Point 76 °F
Humidity 70%
Rainfall 0.00 in
Snow Depth Not available.
6:43 AM 8:10 PM
Waxing Crescent, 21% visible
METAR KPMP 271253Z 13010KT 10SM FEW022 SCT026 31/25 A3002 RMK AO2 SLP167 T03060250

Get Severe Weather Alerts

Thanks for signing up!

Be on the lookout for a verification email in your inbox.

You'll start receiving the daily forecast at 6 AM.

×

10-Day Weather Forecast

Almanac

Astronomy

Jul. 27, 2017 Rise Set
Actual Time
Civil Twilight
Nautical Twilight
Astronomical Twilight
Moon
Length of Visible Light
Length of Day
Tomorrow will be .
, % of the Moon is Illuminated

Today's Extremes

State Highs State Lows

Community

WunderPhotos

Category 6

Welcome to Category 6. This is the collective home for Weather Underground's featured writeups by Dr. Jeff Masters (right), Bob Henson (left), Chris Burt, and other regular contributors.

Nearby

Air Quality

  Air Quality AQ Index Pollutant
Not available.

Snow Depth

Station Depth Elevation

Earthquake Activity

City Distance Mag. Time & Date
Minimum magnitude displayed is 2.5.

Coastal Water Temperatures

Place Temperature

Stations

Nearby Weather Stations

Station Location Temp. Windchill Dew Point Humidity Wind Precip. Elev Updated Type
                   

Watches & Warnings

There are currently no watches in effect.